GW5677 Weather Reports


time (UTC)temp
F
wind
direction
speed
knots
gust
knots
rain 1hr
in
rain 24hr
in
rain mn
in
humidity
%
barometer
mb
20260507220407 47 26 0.0 0.0 0.00 0.12 0.12 99 1005.1
20260507215903 47 28 0.0 0.0 0.00 0.12 0.12 99 1005.2
20260507215400 47 231 0.0 0.9 0.00 0.12 0.12 99 1005.1
20260507214857 47 339 0.0 0.0 0.00 0.12 0.12 99 1005.2
20260507214354 46 53 0.9 0.9 0.00 0.12 0.12 99 1005.2
20260507213850 46 291 0.0 0.0 0.00 0.12 0.12 99 1005.2
20260507213347 46 359 0.0 0.0 0.00 0.12 0.12 99 1005.3
20260507212844 47 64 0.0 0.9 0.00 0.12 0.12 99 1005.2
20260507212339 47 147 4.3 6.1 0.00 0.12 0.12 99 1005.3
20260507211836 47 127 0.9 1.7 0.00 0.12 0.12 99 1005.2
20260507211332 47 112 1.7 1.7 0.00 0.12 0.12 99 1004.9
20260507210829 47 67 1.7 1.7 0.00 0.12 0.12 99 1005.1
20260507210326 47 96 1.7 2.6 0.00 0.12 0.12 99 1004.9
20260507205823 47 267 1.7 1.7 0.00 0.12 0.12 99 1004.9
20260507205321 47 170 0.9 0.9 0.00 0.12 0.12 99 1005.1
20260507204816 46 346 0.9 0.9 0.00 0.12 0.12 99 1005.1
20260507204314 46 136 1.7 1.7 0.00 0.12 0.12 99 1005.1
20260507203812 47 22 0.9 1.7 0.00 0.12 0.12 99 1005.0
20260507203309 47 119 1.7 1.7 0.00 0.12 0.12 99 1004.9
20260507202805 47 181 0.9 0.9 0.00 0.12 0.12 99 1005.2
20260507202301 46 85 1.7 2.6 0.00 0.12 0.12 99 1005.2
20260507201755 46 114 0.0 0.9 0.00 0.12 0.12 99 1005.2
20260507201252 46 79 0.9 0.9 0.00 0.12 0.12 99 1005.1
20260507200749 47 357 0.9 0.9 0.00 0.12 0.12 99 1005.4
20260507200245 47 98 0.9 0.9 0.00 0.12 0.12 99 1005.4
20260507195741 48 122 0.9 1.7 0.00 0.12 0.12 99 1005.2
20260507195240 47 2 0.0 0.9 0.00 0.12 0.12 99 1005.2
20260507194737 47 345 0.9 0.9 0.00 0.12 0.12 99 1005.3
20260507194232 46 313 0.0 0.0 0.00 0.12 0.12 99 1005.8
20260507193729 45 297 0.0 0.9 0.00 0.12 0.12 99 1005.4
20260507193226 45 63 0.9 1.7 0.00 0.12 0.12 99 1005.6
20260507192722 45 92 3.5 3.5 0.00 0.12 0.12 99 1005.8
20260507192219 45 157 1.7 1.7 0.00 0.12 0.12 99 1005.7
20260507191714 47 16 0.9 0.9 0.00 0.12 0.12 99 1005.8
20260507191212 47 298 1.7 1.7 0.00 0.12 0.12 99 1005.5
20260507190709 46 326 0.9 1.7 0.00 0.12 0.12 99 1006.0
20260507190208 46 317 0.0 0.0 0.00 0.12 0.12 99 1005.8
20260507185706 46 194 1.7 2.6 0.00 0.12 0.12 99 1006.1
20260507185202 45 151 1.7 2.6 0.00 0.12 0.12 99 1006.0
20260507184700 45 105 4.3 5.2 0.00 0.12 0.12 99 1006.0
20260507184158 46 213 2.6 2.6 0.00 0.12 0.12 99 1006.1
20260507183654 46 142 0.9 0.9 0.00 0.12 0.12 99 1006.2
20260507183151 46 66 1.7 1.7 0.00 0.12 0.12 99 1006.0
20260507182648 48 243 4.3 5.2 0.00 0.12 0.12 99 1006.2
20260507182143 47 253 2.6 3.5 0.00 0.12 0.12 99 1006.1
20260507181639 47 279 1.7 1.7 0.00 0.12 0.12 99 1006.0
20260507181136 47 237 1.7 2.6 0.00 0.12 0.12 99 1006.2
20260507180632 45 259 1.7 1.7 0.00 0.12 0.12 99 1005.7
20260507180130 46 270 1.7 1.7 0.05 0.12 0.12 99 1006.2
20260507175625 46 303 3.5 3.5 0.05 0.12 0.12 99 1006.4
20260507175123 44 273 3.5 3.5 0.00 0.11 0.11 99 1006.2
20260507174620 44 253 3.5 3.5 0.00 0.11 0.11 99 1006.4
20260507174118 45 284 2.6 2.6 0.00 0.11 0.11 99 1006.0
20260507173615 45 290 3.5 3.5 0.00 0.11 0.11 99 1006.4
20260507173112 45 302 1.7 2.6 0.00 0.11 0.11 99 1006.4
20260507172607 44 278 3.5 3.5 0.00 0.11 0.11 99 1006.5
20260507172106 45 270 1.7 1.7 0.00 0.11 0.11 99 1006.7
20260507171600 44 291 3.5 3.5 0.00 0.11 0.11 99 1006.6
20260507171057 44 250 2.6 2.6 0.00 0.11 0.11 99 1006.7
20260507170554 43 249 1.7 1.7 0.00 0.11 0.11 99 1006.6
20260507170051 43 297 2.6 3.5 0.00 0.11 0.11 99 1006.8
20260507165547 43 266 2.6 2.6 0.00 0.11 0.11 99 1007.1
20260507165044 43 267 3.5 3.5 0.00 0.11 0.11 99 1006.8
20260507164540 43 342 1.7 1.7 0.00 0.11 0.11 99 1007.1
20260507164037 43 329 2.6 2.6 0.00 0.11 0.11 99 1006.9
20260507163534 43 320 1.7 2.6 0.00 0.11 0.11 99 1006.9
20260507163032 43 306 2.6 3.5 0.00 0.11 0.11 99 1007.1
20260507162526 43 309 3.5 3.5 0.00 0.11 0.11 99 1007.2
20260507162023 43 282 2.6 3.5 0.00 0.11 0.11 99 1007.1
20260507161520 42 269 2.6 3.5 0.00 0.11 0.11 99 1007.3
20260507161017 42 303 5.2 6.1 0.00 0.11 0.11 99 1007.2
20260507160512 42 284 3.5 3.5 0.00 0.11 0.11 99 1007.2
20260507160009 42 288 2.6 2.6 0.00 0.11 0.11 99 1007.4
20260507155504 42 293 2.6 2.6 0.00 0.11 0.11 99 1007.7
20260507155002 42 242 2.6 2.6 0.00 0.11 0.11 99 1007.9
20260507154458 41 277 5.2 6.1 0.07 0.11 0.11 99 1007.6
20260507153955 41 316 5.2 6.1 0.07 0.11 0.11 99 1007.8
20260507153452 41 298 5.2 7.0 0.07 0.10 0.10 99 1007.3
20260507152948 41 318 4.3 5.2 0.07 0.10 0.10 99 1007.7
20260507152444 41 277 7.0 7.0 0.00 0.09 0.09 99 1007.9
20260507151941 42 255 6.1 7.0 0.00 0.09 0.09 99 1007.7
20260507151437 41 158 6.1 7.8 0.00 0.09 0.09 99 1007.3
20260507150934 42 317 3.5 3.5 0.00 0.09 0.09 99 1007.4
20260507150431 42 316 3.5 3.5 0.00 0.09 0.09 99 1007.4
20260507145927 42 295 5.2 7.0 0.00 0.09 0.09 99 1007.8
20260507145423 42 304 6.1 7.8 0.00 0.09 0.09 99 1007.6
20260507144921 42 303 4.3 5.2 0.00 0.09 0.09 99 1007.4
20260507144417 42 298 5.2 6.1 0.05 0.09 0.09 99 1007.5
20260507143914 42 298 3.5 5.2 0.05 0.09 0.09 99 1007.8
20260507143412 42 289 5.2 6.1 0.00 0.08 0.08 99 1007.8
20260507142908 42 275 5.2 7.0 0.00 0.08 0.08 99 1007.9
20260507142404 42 293 6.1 7.0 0.00 0.08 0.08 99 1007.9
20260507141901 42 283 6.1 7.0 0.00 0.08 0.08 99 1007.9
20260507141357 42 275 5.2 6.1 0.00 0.08 0.08 99 1007.9
20260507140854 42 295 5.2 6.1 0.00 0.08 0.08 99 1007.9
20260507140351 42 270 2.6 3.5 0.00 0.08 0.08 99 1008.2
20260507135849 42 306 3.5 7.0 0.00 0.08 0.08 99 1008.0
20260507135345 42 277 6.1 7.8 0.00 0.08 0.08 99 1008.3
20260507134843 42 297 6.1 7.8 0.00 0.08 0.08 99 1008.2
20260507134339 42 281 5.2 6.1 0.00 0.08 0.08 99 1008.2
20260507133835 42 298 8.7 9.6 0.00 0.08 0.08 99 1008.3
20260507133330 42 260 7.8 7.8 0.00 0.08 0.08 99 1008.3
20260507132829 42 295 7.0 7.8 0.00 0.08 0.08 99 1008.5
20260507132325 42 258 7.8 8.7 0.00 0.08 0.08 99 1008.2
20260507131823 42 274 7.8 9.6 0.00 0.08 0.08 99 1008.2
20260507131319 42 328 7.0 7.8 0.00 0.08 0.08 99 1008.0
20260507130816 42 280 7.0 7.8 0.00 0.08 0.08 99 1008.3
20260507130313 42 307 7.0 7.8 0.00 0.08 0.08 99 1008.0
20260507125812 42 272 6.1 7.8 0.00 0.08 0.08 99 1007.9
20260507125309 42 280 6.1 7.0 0.00 0.08 0.08 99 1008.0
20260507124806 42 271 5.2 7.0 0.00 0.08 0.08 99 1008.3
20260507124302 42 296 7.0 7.8 0.00 0.08 0.08 99 1008.2
20260507123801 42 293 7.8 11.3 0.00 0.08 0.08 99 1008.0
20260507123258 42 263 7.8 11.3 0.00 0.08 0.08 99 1007.9
20260507122754 42 270 8.7 12.2 0.00 0.08 0.08 99 1008.2
20260507122249 42 257 6.1 8.7 0.00 0.08 0.08 99 1008.2
20260507121746 42 296 7.8 9.6 0.00 0.08 0.08 99 1008.2
20260507121241 42 253 6.1 9.6 0.00 0.08 0.08 99 1007.9
20260507120738 42 289 6.1 8.7 0.00 0.08 0.08 99 1007.7
20260507120235 42 301 4.3 5.2 0.00 0.08 0.08 99 1007.8
20260507115731 42 250 5.2 8.7 0.00 0.08 0.08 99 1007.9
20260507115227 42 297 7.0 8.7 0.00 0.08 0.08 99 1008.2
20260507114722 42 286 5.2 6.1 0.00 0.08 0.08 99 1007.8
20260507114220 42 275 7.0 8.7 0.00 0.08 0.08 99 1007.8
20260507113718 42 261 8.7 11.3 0.00 0.08 0.08 99 1008.0
20260507113214 42 292 7.0 8.7 0.00 0.08 0.08 99 1007.7
20260507112712 42 301 5.2 7.8 0.00 0.08 0.08 99 1007.8
20260507112209 42 292 6.1 8.7 0.00 0.08 0.08 99 1007.7
20260507111706 42 292 7.0 9.6 0.00 0.08 0.08 99 1007.8
20260507111203 42 303 8.7 9.6 0.00 0.08 0.08 99 1007.6
20260507110658 42 285 7.0 8.7 0.00 0.08 0.08 99 1007.6
20260507110156 42 323 7.8 9.6 0.00 0.08 0.08 99 1007.5
20260507105652 42 303 6.1 7.8 0.00 0.08 0.08 99 1007.5
20260507105148 42 274 6.1 7.0 0.00 0.08 0.08 99 1007.3
20260507104646 42 305 8.7 9.6 0.00 0.08 0.08 99 1007.7
20260507104142 42 295 6.1 7.0 0.00 0.08 0.08 99 1007.5
20260507103638 42 229 5.2 7.0 0.00 0.08 0.08 99 1007.3
20260507103135 43 315 4.3 6.1 0.00 0.08 0.08 99 1007.5
20260507102632 43 256 5.2 7.8 0.00 0.08 0.08 99 1007.4
20260507102128 43 278 3.5 5.2 0.00 0.08 0.08 99 1007.7
20260507101624 43 240 4.3 6.1 0.00 0.08 0.08 99 1007.5
20260507101120 43 246 4.3 7.8 0.00 0.08 0.08 99 1007.8
20260507100617 43 269 7.8 8.7 0.00 0.08 0.08 99 1007.6
20260507100115 43 241 6.1 7.8 0.00 0.08 0.08 99 1007.5
20260507095613 43 256 7.0 7.8 0.00 0.08 0.08 99 1007.4
20260507095109 43 243 2.6 2.6 0.00 0.08 0.08 99 1007.5
20260507094605 43 290 6.1 7.0 0.00 0.08 0.08 99 1007.3
20260507094103 44 277 3.5 5.2 0.00 0.08 0.08 99 1007.5
20260507093600 44 315 3.5 5.2 0.00 0.08 0.08 99 1007.2
20260507093059 44 317 0.9 1.7 0.00 0.08 0.08 99 1007.2
20260507092555 44 299 4.3 6.1 0.00 0.08 0.08 99 1007.2
20260507092051 44 278 3.5 3.5 0.00 0.08 0.08 99 1007.4
20260507091548 45 271 1.7 2.6 0.00 0.08 0.08 99 1007.4
20260507091044 45 253 3.5 5.2 0.00 0.08 0.08 99 1007.5
20260507090540 45 296 6.1 7.8 0.00 0.08 0.08 99 1007.6
20260507090037 45 264 3.5 3.5 0.00 0.08 0.08 99 1007.5
20260507085534 45 268 5.2 7.0 0.00 0.08 0.08 99 1007.4
20260507085031 45 280 4.3 6.1 0.00 0.08 0.08 99 1007.2
20260507084528 45 298 3.5 5.2 0.00 0.08 0.08 99 1007.4
20260507084025 45 265 4.3 5.2 0.00 0.08 0.08 99 1007.1
20260507083521 45 245 3.5 3.5 0.00 0.08 0.08 99 1006.9
20260507083018 45 248 7.0 7.8 0.00 0.08 0.08 99 1006.9
20260507082514 46 301 3.5 5.2 0.00 0.08 0.08 99 1007.1
20260507082010 46 316 7.0 9.6 0.00 0.08 0.08 99 1006.8
20260507081507 46 292 7.0 7.8 0.00 0.08 0.08 99 1007.1
20260507081004 47 260 9.6 11.3 0.00 0.08 0.08 99 1007.4
20260507080459 47 264 2.6 3.5 0.00 0.08 0.08 99 1007.4
20260507075955 47 246 5.2 7.0 0.00 0.08 0.08 99 1007.2
20260507075452 47 270 3.5 3.5 0.00 0.08 0.08 99 1007.1
20260507074948 48 280 5.2 8.7 0.00 0.08 0.08 99 1007.5
20260507074445 48 312 3.5 5.2 0.00 0.08 0.08 99 1007.3
20260507073943 48 277 3.5 5.2 0.00 0.08 0.08 99 1007.2
20260507073439 48 242 2.6 3.5 0.00 0.08 0.08 99 1007.2
20260507072936 49 266 3.5 6.1 0.00 0.08 0.08 99 1007.3
20260507072434 49 248 3.5 5.2 0.00 0.08 0.08 99 1007.1
20260507071931 49 277 3.5 5.2 0.00 0.08 0.08 99 1006.9
20260507071428 49 254 3.5 3.5 0.00 0.08 0.08 99 1006.8
20260507070924 49 251 4.3 5.2 0.00 0.08 0.08 99 1007.1
20260507070422 49 285 3.5 5.2 0.00 0.08 0.08 99 1007.4
20260507065918 49 297 2.6 2.6 0.00 0.08 0.08 99 1006.9
20260507065415 49 324 1.7 1.7 0.00 0.08 0.08 99 1007.1
20260507064912 50 316 0.9 1.7 0.00 0.08 0.08 99 1007.3
20260507064410 50 334 1.7 1.7 0.00 0.08 0.08 99 1007.1
20260507063908 50 263 0.9 1.7 0.00 0.08 0.08 99 1007.4
20260507063405 50 280 2.6 2.6 0.00 0.08 0.08 99 1007.4
20260507062902 51 292 0.9 1.7 0.00 0.08 0.08 99 1007.3
20260507062359 51 280 1.7 1.7 0.00 0.08 0.08 99 1007.4
20260507061856 50 273 1.7 1.7 0.00 0.08 0.08 99 1007.3
20260507061354 50 293 0.9 1.7 0.00 0.08 0.08 99 1007.3
20260507060853 50 315 2.6 2.6 0.00 0.08 0.08 99 1007.5
20260507060349 51 260 3.5 5.2 0.00 0.08 0.08 99 1007.7
20260507055846 51 287 3.5 3.5 0.00 0.08 0.08 99 1007.4
20260507055340 52 273 4.3 6.1 0.00 0.08 0.08 99 1007.7
20260507054838 51 244 3.5 3.5 0.00 0.08 0.08 99 1007.4
20260507054334 51 270 4.3 7.0 0.00 0.08 0.08 99 1007.6
20260507053831 52 275 5.2 7.0 0.00 0.08 0.08 99 1007.8
20260507053329 52 276 2.6 2.6 0.00 0.08 0.08 99 1007.6
20260507052828 54 277 3.5 5.2 0.00 0.08 0.08 99 1007.4
20260507052324 54 305 2.6 3.5 0.00 0.08 0.08 99 1007.3
20260507051822 54 294 3.5 3.5 0.00 0.08 0.08 99 1007.5
20260507051319 55 242 3.5 5.2 0.00 0.08 0.08 99 1007.4
20260507050816 55 246 2.6 3.5 0.00 0.08 0.08 99 1007.5
20260507050312 55 306 1.7 3.5 0.00 0.08 0.08 99 1007.5
20260507045809 55 164 1.7 2.6 0.00 0.08 0.08 99 1006.7
20260507045306 55 177 3.5 5.2 0.00 0.08 0.08 99 1006.4
20260507044803 55 99 3.5 5.2 0.00 0.08 0.08 99 1006.9
20260507044259 55 210 0.9 1.7 0.00 0.08 0.08 99 1007.2
20260507043755 54 231 1.7 2.6 0.00 0.08 0.08 99 1007.5
20260507043252 54 249 2.6 2.6 0.07 0.08 0.08 99 1007.8
20260507042748 54 279 2.6 2.6 0.07 0.08 0.08 99 1007.6
20260507042243 55 281 3.5 5.2 0.00 0.07 0.07 99 1007.7
20260507041741 55 305 3.5 3.5 0.12 0.07 0.07 99 1007.4
20260507041237 55 255 0.9 1.7 0.35 0.07 0.07 99 1007.7
20260507040735 55 285 7.8 8.7 0.40 0.05 0.05 99 1008.0
20260507040231 55 277 6.1 8.7 0.24 0.01 0.01 99 1007.9
20260507035727 56 227 4.3 6.1 0.14 0.26 0.26 99 1007.8
20260507035222 56 289 1.7 1.7 0.07 0.25 0.25 99 1007.9
20260507034720 56 359 0.0 0.9 0.00 0.24 0.24 99 1007.6
20260507034217 56 307 2.6 2.6 0.00 0.24 0.24 99 1007.8
20260507033715 56 267 1.7 2.6 0.00 0.24 0.24 99 1007.9
20260507033212 56 215 2.6 3.5 0.00 0.24 0.24 99 1007.9
20260507032710 56 274 2.6 3.5 0.00 0.24 0.24 99 1007.9
20260507032205 56 242 5.2 7.0 0.05 0.24 0.24 99 1008.3
20260507031702 56 283 4.3 6.1 0.28 0.24 0.24 99 1008.2
20260507031159 56 292 4.3 7.0 0.35 0.23 0.23 99 1008.0
20260507030656 56 239 3.5 5.2 0.12 0.19 0.19 99 1007.9
20260507030154 56 249 1.7 1.7 0.00 0.17 0.17 99 1007.6
20260507025651 56 262 1.7 2.6 0.00 0.17 0.17 99 1007.7
20260507025147 57 276 0.9 1.7 0.07 0.17 0.17 99 1007.6
20260507024645 57 262 1.7 2.6 0.07 0.17 0.17 99 1007.6
20260507024142 57 307 1.7 2.6 0.00 0.16 0.16 99 1007.7
20260507023638 58 259 4.3 5.2 0.47 0.16 0.16 99 1007.9
20260507023136 58 276 2.6 3.5 0.47 0.16 0.16 99 1007.7
20260507022632 59 292 2.6 5.2 0.05 0.09 0.09 98 1008.2
20260507022128 59 256 2.6 3.5 0.00 0.08 0.08 96 1007.4
20260507021624 59 216 2.6 3.5 0.00 0.08 0.08 96 1007.5
20260507021120 59 109 2.6 3.5 0.00 0.08 0.08 95 1007.7
20260507020619 60 235 1.7 2.6 0.00 0.08 0.08 95 1007.6
20260507020114 60 233 2.6 2.6 0.00 0.08 0.08 94 1007.9
20260507015613 59 63 0.9 0.9 0.00 0.08 0.08 94 1007.4
20260507015110 59 245 3.5 5.2 0.00 0.08 0.08 95 1007.5
20260507014607 59 294 0.9 1.7 0.00 0.08 0.08 95 1007.5
20260507014102 59 155 3.5 5.2 0.00 0.08 0.08 95 1007.1
20260507013559 60 77 1.7 1.7 0.00 0.08 0.08 95 1006.9
20260507013056 60 353 0.9 1.7 0.00 0.08 0.08 94 1007.4
20260507012554 60 146 0.9 1.7 0.00 0.08 0.08 94 1007.8
20260507012049 60 344 1.7 1.7 0.00 0.08 0.08 93 1007.5
20260507011547 60 242 4.3 7.0 0.00 0.08 0.08 93 1007.7
20260507011038 60 334 2.6 3.5 0.00 0.08 0.08 94 1007.8
20260507010538 60 272 3.5 5.2 0.00 0.08 0.08 94 1007.8
20260507010034 60 266 0.9 1.7 0.00 0.08 0.08 95 1007.8
20260507005532 60 283 3.5 6.1 0.00 0.08 0.08 95 1007.8
20260507005028 60 200 3.5 5.2 0.00 0.08 0.08 95 1008.0
20260507004525 60 326 2.6 3.5 0.00 0.08 0.08 94 1007.9
20260507004023 60 355 1.7 2.6 0.00 0.08 0.08 94 1007.9
20260507003518 60 46 2.6 2.6 0.00 0.08 0.08 94 1007.7
20260507003013 60 229 3.5 6.1 0.00 0.08 0.08 94 1007.8
20260507002510 59 238 3.5 6.1 0.00 0.08 0.08 94 1007.8
20260507002006 59 351 1.7 2.6 0.00 0.08 0.08 95 1007.7
20260507001503 59 253 4.3 5.2 0.00 0.08 0.08 96 1007.6
20260507001000 59 136 2.6 3.5 0.00 0.08 0.08 96 1007.6
20260507000456 59 316 3.5 5.2 0.00 0.08 0.08 96 1007.6
20260506235952 59 241 1.7 3.5 0.00 0.08 0.08 96 1007.3
20260506235450 59 342 3.5 3.5 0.00 0.08 0.08 95 1007.3
20260506234945 60 68 3.5 5.2 0.00 0.08 0.08 94 1007.2
20260506234443 60 76 2.6 3.5 0.00 0.08 0.08 94 1007.3
20260506233940 60 188 3.5 6.1 0.00 0.08 0.08 94 1007.5
20260506233436 60 264 2.6 2.6 0.00 0.08 0.08 94 1007.7
20260506232933 60 225 3.5 6.1 0.00 0.08 0.08 94 1007.5
20260506232429 60 117 1.7 1.7 0.00 0.08 0.08 94 1007.6
20260506231925 61 0 0.9 0.9 0.00 0.08 0.08 93 1007.4
20260506231423 62 216 0.9 0.9 0.00 0.08 0.08 92 1007.5
20260506230920 62 206 1.7 2.6 0.00 0.08 0.08 90 1007.4
20260506230416 62 230 3.5 5.2 0.00 0.08 0.08 90 1007.3
20260506225913 62 89 2.6 3.5 0.00 0.08 0.08 90 1007.3
20260506225410 62 205 3.5 5.2 0.00 0.08 0.08 92 1007.3
20260506224907 61 213 1.7 3.5 0.00 0.08 0.08 93 1007.2
20260506224405 61 297 1.7 1.7 0.00 0.08 0.08 92 1007.2
20260506223900 61 228 0.9 1.7 0.00 0.08 0.08 92 1007.1
20260506223356 61 330 1.7 1.7 0.00 0.08 0.08 92 1007.3
20260506222853 62 233 3.5 3.5 0.00 0.08 0.08 92 1007.2
20260506222349 62 233 3.5 3.5 0.00 0.08 0.08 91 1007.2
20260506221847 61 311 1.7 1.7 0.00 0.08 0.08 94 1007.2
20260506221344 61 2 0.9 0.9 0.00 0.08 0.08 93 1007.3